STARLINK-2530, 48303

Orbit data source: Space-Track

STARLINK-2530, 48303 is a payload satellite owned by SpaceX/Seattle (US) in LEO that was launched on Thu, 29 Apr 2021 UTC via an FALCON 9 launch vehicle from the Air Force Eastern Test Range (AFETR). Payload-class satellites include a variety of spacecraft equipped with specific instruments for various scientific and technological missions. These include communications satellites like Starlink; space stations such as the ISS; scientific satellites like the Hubble; Earth observation satellites from companies like Planet Labs, Umbra, and HawkEye 360; GPS; miniature CubeSats for education and research; and military/defense satellites.

Loading next visibility...
Identifier
48303, 2021-036AD
Orbit
LEO
Country
Flag of USUS
Related business
Manufacturer
SpaceX/Seattle
Mission
Operational Commercial Communications
Bus & Motor
STARLINK, Unknown motor
Mass
260 kg wet, ~248 kg dry
Launch date (UTC)
2021-04-29 (5 years ago)
Launch vehicle
FALCON 9
Launch site
Air Force Eastern Test Range (AFETR)
Object type
Payload
Rocket body
Debris
Shape & HBR
Box + 1 Pan, 10.1 m
Radar Cross Section
13.562 m², Large (>1 m²)

Expand to show TLE details & history
Last TLE update: 21 hours ago

TLE from 21 hours ago
0 STARLINK-2530
1 48303U 21036AD  25308.24254939  .00004489  00000-0  31992-3 0  9998
2 48303  53.0539 295.3109 0001465  89.0055 271.1102 15.06414601249251
Epoch: 2025-11-04T05:49Z
TLE epoch observation values (Epoch: 2025-11-04T05:49:16.267Z)
Latitude
Longitude
164.26074°
Altitude
548.026 km
Speed
7.589 km/s
True Right ascension
19h 41m 14s
True Declination
0° 00' 00"
Sunlit
Object was in daylight at epoch
Visualization orbit readout
Latitude
Unknown
Longitude
Unknown
Altitude
Unknown
Speed
Unknown
Apparent Right ascension
Unknown
Apparent Declination
Unknown
Sunlit
N/A
Visualization observer readout
Local Sidereal Time
23:03:32
Azimuth
Unknown
Elevation
Unknown
Doppler factor
Unknown
Orbital elements
Apogee altitude
548.452 km
Perigee altitude
546.423 km
Semi-major axis
6,925.575 km
Eccentricity
0.00015
Inclination
53.0539°
RAAN
295.3109°
Arg. of periapsis
89.0055°
True anomaly
271.09342°
Mean anomaly
271.1102°
Eccentric anomaly
271.10181°
Mean motion
3.76582 °/min
Orbital period
95.6 mins
BSTAR
0.00031992
Loading maneuver chart data...
Computing Atmospheric mass density...

Documentation

Showing up to 5 results
|